Content
SEND FEEDBACK

Daily
Averages
Monthly
Summary
United States of America

ALLEGAN, MICHIGAN


Home > North America > United States > Michigan
Elevation: 773 feet     Latitude: 42 34N     Longitude: 085 46W

WEATHER
 
SELECT A DAY
Number of Records: 217,453;   Date Range: 7/1/96 - 9/20/14
 
SHARE

PRINT THIS DATA

[ ← Previous Day ]
WEATHER ALMANAC - APRIL 25, 2014
[ Next Day → ]
[ °C ]   °F
Weather ElementAverageHighLow
Temperature47.9 °F57 °F (5:53 pm)43 °F (5:53 am)
Dewpoint39.9 °F42.1 °F (10:32 am)34 °F (1:53 am)
Humidity74.7 %89 % (6:53 am)53 % (6:53 pm)
Barometer29.76 in29.83 in (10:53 pm)29.61 in (5:53 am)
Wind Speed8.6 mph16.1 mph (1:53 pm)
Wind Gust23 mph (1:53 pm)
Weather ElementAverage
Visibility9.6 mi
Wind DirectionSSW (204 °)

Weather ElementTotal
Precipitation0.27 in
Heating Degree Days15 (Base 65)
Averaged from 30 records on April 25, 2014
WEATHER CONDITIONS BREAKOUT
WIND DIRECTION BREAKOUT
WEATHER BY HOUR - APRIL 25, 2014
[ °C ]   °F
Local TimeTemperatureDewpointHumidityBarometerVisibilityWind DirectionWind SpeedGust SpeedPrecipitationEventsConditions
1:53 AM46.9 °F34.0 °F61 %29.69 in10.0 miESE (110°)12.7 mph0.02 inRainLight Rain
2:53 AM45.0 °F35.1 °F68 %29.70 in10.0 miESE (110°)15.0 mph0.01 inRainLight Rain
3:53 AM44.1 °F37.0 °F76 %29.71 in9.0 miESE (110°)11.5 mph0.06 inRainLight Rain
4:53 AM44.1 °F37.9 °F79 %29.67 in9.0 miEast (100°)3.5 mph0.04 inRainLight Rain
5:53 AM43.0 °F37.9 °F82 %29.61 in10.0 miESE (110°)13.8 mph0.06 inRainLight Rain
6:53 AM43.0 °F39.9 °F89 %29.64 in6.0 miCalm0.05 inRainLight Rain
7:01 AM43.0 °F39.9 °F89 %29.69 in6.0 miCalm0.01 inRainLight Rain
7:53 AM43.0 °F39.9 °F89 %29.71 in10.0 miNE (50°)3.5 mph0.02 inOvercast
8:53 AM44.1 °F39.9 °F85 %29.73 in7.0 miEast (90°)4.6 mphOvercast
9:53 AM45.0 °F39.9 °F82 %29.73 in10.0 miCalmOvercast
10:32 AM46.0 °F42.1 °F86 %29.73 in10.0 miWest (280°)6.9 mphOvercast
10:42 AM46.9 °F42.1 °F83 %29.74 in10.0 miWest (270°)9.2 mphOvercast
10:53 AM46.0 °F41.0 °F83 %29.75 in10.0 miWest (280°)11.5 mphOvercast
11:05 AM45.0 °F41.0 °F86 %29.75 in10.0 miWest (270°)13.8 mph17.3 mphOvercast
11:53 AM45.0 °F39.0 °F80 %29.78 in10.0 miWNW (290°)10.4 mph18.4 mphOvercast
12:53 PM48.0 °F41.0 °F77 %29.79 in10.0 miNW (310°)10.4 mph20.7 mphOvercast
1:05 PM48.0 °F39.9 °F74 %29.78 in10.0 miWNW (300°)12.7 mph20.7 mphOvercast
1:15 PM48.0 °F39.9 °F74 %29.78 in10.0 miNW (310°)12.7 mph20.7 mphMostly Cloudy
1:27 PM48.0 °F41.0 °F77 %29.79 in10.0 miWNW (300°)11.5 mphScattered Clouds
1:53 PM50.0 °F42.1 °F74 %29.80 in10.0 miWNW (300°)16.1 mph23.0 mphScattered Clouds
2:53 PM51.1 °F42.1 °F71 %29.80 in10.0 miWNW (300°)13.8 mph20.7 mphClear
3:53 PM51.1 °F41.0 °F68 %29.82 in10.0 miWest (280°)13.8 mphClear
4:53 PM55.9 °F42.1 °F60 %29.81 in10.0 miWNW (300°)8.1 mphClear
5:53 PM57.0 °F41.0 °F55 %29.81 in10.0 miWSW (250°)8.1 mphClear
6:53 PM57.0 °F39.9 °F53 %29.79 in10.0 miSW (230°)6.9 mphClear
7:53 PM55.9 °F42.1 °F60 %29.80 in10.0 miSW (230°)4.6 mphMostly Cloudy
8:53 PM53.1 °F41.0 °F64 %29.81 in10.0 miSW (220°)5.8 mphScattered Clouds
9:53 PM48.9 °F39.9 °F71 %29.82 in10.0 miSW (230°)4.6 mphPartly Cloudy
10:53 PM46.9 °F39.0 °F74 %29.83 in10.0 miWSW (240°)5.8 mphClear
11:53 PM48.0 °F39.0 °F71 %29.82 in10.0 miWSW (250°)6.9 mphClear
Hourly data recorded from KBIV, located miles away from Allegan, Michigan







STORIES FROM OUR PARTNERS